Showing default

OPS 9324 (IDSCS 11), 2651

Orbit data source: Space-Track

OPS 9324 (IDSCS 11), 2651 is a payload satellite owned by USAF SSD (US) in GEO that was launched on Wed, 18 Jan 1967 UTC via a TITAN IIIC launch vehicle from the Air Force Eastern Test Range (AFETR). Payload-class satellites include a variety of spacecraft equipped with specific instruments for various scientific and technological missions. These include communications satellites like Starlink; space stations such as the ISS; scientific satellites like the Hubble; Earth observation satellites from companies like Planet Labs, Umbra, and HawkEye 360; GPS; miniature CubeSats for education and research; and military/defense satellites.

Not visible in the next 10 days
Identifier
2651, 1967-003D
Orbit
GEO
Country
Flag of USUS
Related business
Manufacturer
Philco-Ford WDL
Mission
Non-operational spacecraft
Bus & Motor
IDCSP, Unknown motor
Mass
45 kg wet, 45 kg dry
Launch date (UTC)
1967-01-18 (59 years ago)
Launch vehicle
TITAN IIIC
Launch site
Air Force Eastern Test Range (AFETR)
Object type
Payload
Rocket body
Debris
Shape & HBR
Unknown
Radar Cross Section
Medium (>0.1 m² and <1 m²)

Expand to show TLE details & history
Last TLE update: 1 week ago

TLE from 1 week ago
0 OPS 9324 (IDSCS 11)
1 02651U 67003D   26027.64652708 -.00000092  00000-0  00000-0 0  9997
2 02651   8.0017  46.4270 0032572  95.5378  73.7765  1.08105245139229
Epoch: 2026-01-27T15:30Z
TLE epoch observation values (Epoch: 2026-01-27T15:30:59.939Z)
Latitude
1.43918°
Longitude
-143.45717°
Altitude
33,687.753 km
Speed
3.156 km/s
True Right ascension
14h 24m 52s
True Declination
1° 26' 16"
Sunlit
Object was in daylight at epoch
Visualization orbit readout
Latitude
Unknown
Longitude
Unknown
Altitude
Unknown
Speed
Unknown
Apparent Right ascension
Unknown
Apparent Declination
Unknown
Sunlit
N/A
Visualization observer readout
Local Sidereal Time
19:38:45
Azimuth
Unknown
Elevation
Unknown
Doppler factor
Unknown
Orbital elements
Apogee altitude
33,856.007 km
Perigee altitude
33,594.756 km
Semi-major axis
40,103.519 km
Eccentricity
0.00326
Inclination
8.0017°
RAAN
46.427°
Arg. of periapsis
95.5378°
True anomaly
74.13529°
Mean anomaly
73.7765°
Eccentric anomaly
73.95585°
Mean motion
0.27025 °/min
Orbital period
1,332.09 mins
BSTAR
0
Loading maneuver chart data...
Computing Atmospheric mass density...
Loading historical data...
Loading historical data...
Loading historical data...
Loading historical data...
Loading historical data...
Loading historical data...
Loading historical data...

Documentation

Showing up to 5 results
|